Hourly Data Report for July 01, 2017

QUALICUM BEACH AIRPORT
BRITISH COLUMBIA

49°20'14.000" N
124°23'38.000" W
58.20 m
1026562
71766
VOQ

Download Data

Hourly Data (July 2017)
Hourly Data Report for July 1, 2017
TIME
LST
Temp Definition
°C
Dew Point Definition
°C
Rel Hum Definition
%
Precip. Amount Definition
mm

Wind Dir Definition
10's deg

Wind Spd Definition
km/h
Visibility Definition
km
Stn Press Definition
kPa
Hmdx Definition


Wind Chill Definition


Weather Definition


00:00 16.6 11.3 71 0.0 30 3   100.68     LegendNANA
01:00 15.4 11.9 80 0.0 25 4   100.68     LegendNANA
02:00 13.9 12.0 88 0.0 16 2   100.71     LegendNANA
03:00 13.6 11.6 87 0.0 19 1   100.71     LegendNANA
04:00 13.6 11.5 87 0.0 28 2   100.78     LegendNANA
05:00 14.1 11.3 84 0.0 27 5   100.85     LegendNANA
06:00 15.3 12.0 81 0.0 0 1   100.89     LegendNANA
07:00 17.5 10.6 64 0.0 30 7   100.93     LegendNANA
08:00 19.2 11.1 59 0.0 35 8   100.98     LegendNANA
09:00 19.4 11.6 61 0.0 3 7   101.00     LegendNANA
10:00 18.3 12.5 69 0.0 8 11   101.03     LegendNANA
11:00 19.4 12.8 66 0.0 8 10   101.03     LegendNANA
12:00 20.1 11.7 59 0.0 8 12   101.03     LegendNANA
13:00 20.2 11.3 57 0.0 9 15   101.02     LegendNANA
14:00 20.4 12.0 58 0.0 9 12   100.99     LegendNANA
15:00 21.6 11.3 52 0.0 9 11   100.97     LegendNANA
16:00 20.4 12.1 59 0.0 9 11   100.95     LegendNANA
17:00 20.5 13.2 63 0.0 8 8   100.93     LegendNANA
18:00 20.5 13.7 65 0.0 10 5   100.93     LegendNANA
19:00 20.4 14.3 68 0.0 7 3   100.92     LegendNANA
20:00 18.3 14.3 77 0.0 10 4   100.90     LegendNANA
21:00 17.1 14.5 85 0.0   0   100.91     LegendNANA
22:00 15.8 14.0 89 0.0 29 2   100.93     LegendNANA
23:00 15.4 14.1 92 0.0 0 1   100.93     LegendNANA

Notes on Data Quality.

Legend

  • E = Estimated
  • M = Missing
  • NA = Not Available*
  • [empty] = Indicates an unobserved value
Date modified: